Regional Weather Roundup
Issued by NWS

Home | Current Version | Previous Version | Graphics & Text | Print | Product List | Glossary On
Versions: 1 2 3 4 5 6 7 8 9 10 11 12 13 14 15 16 17 18 19 20 21 22 23 24 25 26 27 28 29 30 31 32 33 34 35 36 37 38 39 40 41 42 43 44 45 46 47 48 49 50
000
ASUS43 KOAX 230710
RWRNE

WEATHER ROUNDUP FOR NEBRASKA
NATIONAL WEATHER SERVICE OMAHA NE
200 AM CDT THU OCT 23 2014

NOTES: SATELLITE DATA IS BEING USED TO AUGMENT CLOUD COVER ABOVE
       12000 FEET.
       "FAIR" INDICATES FEW OR NO CLOUDS BELOW 12,000 FEET WITH NO
       SIGNIFICANT WEATHER AND/OR OBSTRUCTIONS TO VISIBILITY.

  * THESE STATIONS DO NOT REPORT WEATHER SUCH AS RAIN...SNOW OR FOG.

NEZ001>004-019>022-054>056-230800-
NEBRASKA PANHANDLE

CITY           SKY/WX    TMP DP  RH WIND       PRES   REMARKS
SCOTTSBLUFF    CLEAR     38  29  70 N7        30.10S WCI  33
ALLIANCE       PTCLDY    29  24  82 W6        30.08S WCI  23
CHADRON        CLEAR     31  28  89 CALM      30.05S
KIMBALL        CLEAR     40  35  81 W7        30.11S
SIDNEY         CLEAR     40  34  79 W9        30.11F WCI  34
$$

NEZ057>060-069>072-079>082-230800-
SOUTHWEST NEBRASKA

CITY           SKY/WX    TMP DP  RH WIND       PRES   REMARKS
NORTH PLATTE   FOG       43  43 100 SE3       30.08R VSB 1/4
IMPERIAL       CLEAR     45  32  60 W5        30.09R
LEXINGTON      FOG       50  49  97 CALM      30.08R VSB<1/4
MCCOOK         CLEAR     45  43  93 NW5       30.08R
OGALLALA       PTCLDY    37  34  89 W5        30.09R WCI  33
$$

NEZ005>010-023>029-035>040-094-230800-
NORTH CENTRAL NEBRASKA

CITY           SKY/WX    TMP DP  RH WIND       PRES   REMARKS
VALENTINE      CLEAR     39  36  89 SW5       30.05S
AINSWORTH      CLEAR     42  39  90 SW6       30.05S
BROKEN BOW     FOG       42  40  92 CALM      30.07R VSB 1
O`NEILL        FOG       39  39 100 SW3       30.05S VSB 1/2
ORD            FOG       42  42 100 CALM      30.05S VSB 1/4
THEDFORD       CLEAR     43  42  97 CALM      30.07S FOG
$$

NEZ041-046>049-061>064-073>077-083>087-230800-
SOUTH CENTRAL NEBRASKA

CITY           SKY/WX    TMP DP  RH WIND       PRES   REMARKS
GRAND ISLAND   FOG       52  51  97 NW6       30.06R VSB 1/4
AURORA         FOG       58  58 100 N6        30.05S VSB<1/4
HASTINGS       FOG       54  52  93 N6        30.05S VSB 1/4
HEBRON         CLEAR     59  56  89 S8        30.03S
HOLDREGE       FOG       51  50  97 CALM      30.07S VSB<1/4
KEARNEY *      CLOUDY    50  48  93 NW5       30.08R VSB<1/4
YORK           CLOUDY    57  57 100 W3        30.04S FOG
$$

NEZ011>018-030>034-042>045-230800-
NORTHEAST NEBRASKA

CITY           SKY/WX    TMP DP  RH WIND       PRES   REMARKS
NORFOLK        PTCLDY    52  51  97 W6        30.03F
ALBION         FOG       47  46  93 CALM      30.06R VSB 1/4
BLAIR          CLOUDY    62  60  91 S6        30.01S
COLUMBUS *     MOCLDY    55  52  88 NW6       30.05R
FREMONT        CLOUDY    63  59  89 SW6       30.02S
TEKAMAH        CLOUDY    62  60  93 S6        30.01S
WAYNE          CLOUDY    56  55  96 CALM      30.03S
$$

NEZ050>053-065>068-078-088>093-230800-
SOUTHEAST NEBRASKA

CITY           SKY/WX    TMP DP  RH WIND       PRES   REMARKS
OMAHA EPPLEY   CLOUDY    63  60  90 S12       30.02F
BEATRICE       CLOUDY    61  59  93 S9        30.03S
FALLS CITY     LGT RAIN  62  60  93 S3        30.06S
NEBRASKA CITY  LGT RAIN  60  60 100 S7        30.05S
PLATTSMOUTH    CLOUDY    60  59  95 S8        30.03S FOG
$$

NEZ044-045-051>053-067-230800-
OMAHA AREA

CITY           SKY/WX    TMP DP  RH WIND       PRES   REMARKS
OMAHA EPPLEY   CLOUDY    63  60  90 S12       30.02F
BLAIR          CLOUDY    62  60  91 S6        30.01S
FREMONT        CLOUDY    63  59  89 SW6       30.02S
MILLARD        CLOUDY    62  60  92 SE3       30.02S
OFFUTT AFB     CLOUDY    61  61 100 SE9       30.02S
PLATTSMOUTH    CLOUDY    60  59  95 S8        30.03S FOG
WAHOO          CLOUDY    61  57  88 SW5       30.02S
$$



USA.gov is the U.S. government's official web portal to all federal, state and local government web resources and services.